STARLINK-37671, 69206

Orbit data source: Space-Track

STARLINK-37671, 69206 is a payload satellite owned by SpaceX/Seattle (US) in LEO that was launched on Mon, 25 May 2026 UTC via an FALCON 9 launch vehicle from the Air Force Eastern Test Range (AFETR). Payload-class satellites include a variety of spacecraft equipped with specific instruments for various scientific and technological missions. These include communications satellites like Starlink; space stations such as the ISS; scientific satellites like the Hubble; Earth observation satellites from companies like Planet Labs, Umbra, and HawkEye 360; GPS; miniature CubeSats for education and research; and military/defense satellites.

Loading next visibility...
Identifier
69206, 2026-114AA
Orbit
LEO
Country
Flag of USUS
Related business
Manufacturer
SpaceX/Seattle
Mission
Operational spacecraft
Bus & Motor
STARLINK V2MO, Unknown motor
Mass
575 kg wet, ~530 kg dry
Launch date (UTC)
2026-05-25 (4 weeks ago)
Launch vehicle
FALCON 9
Launch site
Air Force Eastern Test Range (AFETR)
Object type
Payload
Rocket body
Debris
Shape & HBR
Unknown
Radar Cross Section
Large (>1 m²)

Expand to show TLE details & history
Last TLE update: 10 hours ago

TLE from 10 hours ago
0 STARLINK-37671
1 69206U 26114AA  26171.41836838  .00275011  00000-0  15328-2 0  9992
2 69206  53.1581 186.0194 0001210  70.0728 290.0424 15.78119801  5282
Epoch: 2026-06-20T10:02Z
TLE epoch observation values (Epoch: 2026-06-20T10:02:27.028Z)
Latitude
0.00002°
Longitude
126.77352°
Altitude
336.408 km
Speed
7.708 km/s
True Right ascension
12h 24m 04s
True Declination
0° 00' 00"
Sunlit
Object was in daylight at epoch
Visualization orbit readout
Latitude
Unknown
Longitude
Unknown
Altitude
Unknown
Speed
Unknown
Apparent Right ascension
Unknown
Apparent Declination
Unknown
Sunlit
N/A
Visualization observer readout
Local Sidereal Time
07:13:33
Azimuth
Unknown
Elevation
Unknown
Doppler factor
Unknown
Orbital elements
Apogee altitude
336.842 km
Perigee altitude
335.218 km
Semi-major axis
6,714.167 km
Eccentricity
0.00012
Inclination
53.1581°
RAAN
186.0194°
Arg. of periapsis
70.0728°
True anomaly
290.02937°
Mean anomaly
290.0424°
Eccentric anomaly
290.03589°
Mean motion
3.94507 °/min
Orbital period
91.25 mins
BSTAR
0.0015328
Loading maneuver chart data...
Computing Atmospheric mass density...
Loading historical data...
Loading historical data...
Loading historical data...
Loading historical data...
Loading historical data...
Loading historical data...
Loading historical data...

Documentation

Showing up to 5 results
|